Location: Emblem
(62.4273°N, 6.4710°E)
Time: 06:10:20
(UTC+02:00)

Transit 2A - Pass Details

Date: 10 March 2024
Orbit: 596 x 956 km, 66.7° (Epoch: 24 April)

Event Time Altitude Azimuth Distance (km) Brightness Sun altitude
Rises 19:30:51 0° 250° (WSW) 2,850 10.2 -8.7°
Reaches altitude 10° 19:33:04 10° 253° (WSW) 1,965 9.3 -8.9°
Maximum altitude 19:37:27 67° 337° (NNW) 690 5.9 -9.4°
Drops below altitude 10° 19:42:09 10° 61° (ENE) 2,108 7.8 -9.9°
Enters shadow 19:42:57 - 62° (ENE) 2,427 8.1 -10.0°
